Location: Moena
(46.3667°N, 11.6500°E)
Time: 13:21:17
(UTC+00:00)

Cosmos 2333 Rocket - Pass Details

Date: 24 June 2021
Orbit: 841 x 861 km, 70.8° (Epoch: 26 July)

Event Time Altitude Azimuth Distance (km) Brightness Sun altitude
Rises 21:12:01 0° 239° (WSW) 3,424 5.3 -14.8°
Reaches altitude 10° 21:14:47 10° 250° (WSW) 2,489 4.7 -15.0°
Maximum altitude 21:19:45 30° 310° (NW) 1,497 4.2 -15.4°
Drops below altitude 10° 21:24:44 10° 11° (N) 2,489 5.4 -15.8°
Sets 21:27:31 0° 22° (NNE) 3,425 6.0 -16.0°
